Location: �quirre
(50.4736°N, 2.2351°E)
Time: 06:09:51
(UTC+00:00)

IDEFIX/ARIANE 42P - Pass Details

Date: 07 August 2020
Orbit: 786 x 802 km, 98.4° (Epoch: 23 September)

Event Time Altitude Azimuth Distance (km) Brightness Sun altitude
Rises 02:08:59 0° 23° (NNE) 3,292 7.4 -17.2°
Reaches altitude 10° 02:11:41 10° 35° (NE) 2,360 6.4 -16.9°
Maximum altitude 02:16:03 27° 93° (E) 1,494 4.3 -16.6°
Drops below altitude 10° 02:20:24 10° 150° (SSE) 2,351 4.8 -16.2°
Enters shadow 02:21:55 - 158° (SSE) 2,864 5.2 -16.0°
